Regional Weather Roundup
Issued by NWS Spokane, WA

Home | Current Version | Previous Version | Text Only | Print | Product List | Glossary On
Versions: 1 2 3 4 5 6 7 8 9 10 11 12 13 14 15 16 17 18 19 20 21 22 23 24 25 26 27 28 29 30 31 32 33 34 35 36 37 38 39 40 41 42 43 44 45 46 47 48 49 50
000
NZUS01 KOTX 270810
RWROTX
EASTERN WASHINGTON/NORTHERN IDAHO ROUNDUP
NATIONAL WEATHER SERVICE, SPOKANE WA
100 AM PDT WED MAY 27 2015

Note: "fair" indicated few or no clouds below 12,000 feet with no
significant weather and/or obstructions to visibility.

...NORTHEAST WASHINGTON AND NORTHERN IDAHO PANHANDLE...

CITY           SKY/WX    TMP DP  RH WIND       PRES   REMARKS
SPOKANE INTL   PTCLDY    51  48  89 W3        29.98S
SPOKANE DOWNTO CLEAR     51  49  92 CALM      29.98S
COEUR D ALENE  PTCLDY    48  45  87 CALM      29.98R
DEER PARK      CLOUDY    49  47  93 CALM      29.99R
SANDPOINT      CLOUDY    50  50 100 CALM      29.99R
BONNERS FERRY  CLOUDY    52  50  93 CALM      29.99R

...SOUTHEAST WASHINGTON AND SOUTHERN IDAHO PANHANDLE...

CITY           SKY/WX    TMP DP  RH WIND       PRES   REMARKS
WALLA WALLA    PTCLDY    57  49  74 E6        29.95R
PULLMAN/MOSCOW CLEAR     44  41  89 CALM      29.99S
LEWISTON       CLEAR     53  48  83 SE5       29.96S
LOWELL           N/A     52  47  83 N3        30.00R

...COLUMBIA BASIN...

CITY           SKY/WX    TMP DP  RH WIND       PRES   REMARKS
EPHRATA        CLEAR     58  50  75 CALM      29.96R
MOSES LAKE     CLEAR     53  49  86 NE6       29.97R
TRI CITIES     PTCLDY    56  54  93 NW5       29.95R
HERMISTON      PTCLDY    56  50  80 W5        29.95R
PENDLETON      CLEAR     50  47  89 NW5       29.95S

...EAST SLOPES CASCADES...

CITY           SKY/WX    TMP DP  RH WIND       PRES   REMARKS
THE DALLES     CLEAR     62  47  57 NW12      29.97R
YAKIMA         CLOUDY    63  45  51 NW9       29.98R
ELLENSBURG     CLEAR     56  47  71 NW13      29.99R
WENATCHEE      PTCLDY    62  50  64 NW7       29.98R
OMAK           CLEAR     55  47  74 W5        29.98S

...SOUTHERN BRITISH COLUMBIA...

CITY           SKY/WX    TMP DP  RH WIND       PRES   REMARKS
PENTICTON      MOCLDY    57  50  77 NW3       29.98S
CRANBROOK      CLOUDY    54  46  76 NW7       30.02S

...WESTERN MONTANA...

CITY           SKY/WX    TMP DP  RH WIND       PRES   REMARKS
MISSOULA       MOCLDY    48  45  89 SE5       30.03R

...NEIGHBORING CITIES...

CITY           SKY/WX    TMP DP  RH WIND       PRES   REMARKS
SEATTLE        PTCLDY    58  51  78 CALM      30.05R
CALGARY        MOCLDY    54  45  71 SW6       30.06S



USA.gov is the U.S. government's official web portal to all federal, state and local government web resources and services.